Tracking 29487 objects as of 11-Sep-2024
HD Live streaming from Space Station
objects crossing your sky now

COSMOS 1408 DEB

Track COSMOS 1408 DEB now!
10-day predictions


NORAD ID: 50032
Int'l Code: 1982-092RU
Perigee: 441.6 km
Apogee: 469.1 km
Inclination: 82.6 °
Period: 93.6 minutes
Semi major axis: 6826 km
RCS: Unknown
Launch date: September 16, 1982
Source: Commonwealth of Independent States (former USSR) (CIS)
Launch site: PLESETSK MISSILE AND SPACE COMPLEX (PKMTR)

Note: This is SATELLITE DEBRIS
Your satellite tracking list
Your tracking list is empty




NASA's NSSDC Master Catalog

Two Line Element Set (TLE):
1 50032U 82092RU  24255.19455340  .00009521  00000-0  24175-3 0  9999
2 50032  82.5681 165.3325 0020146  70.3550 289.9867 15.39275217155495
Source of the keplerian elements: AFSPC